SCP
0 0 0 0 0 0 0 0 0 0 0 0 0 0 0 0 0 0 0 0 0 0 0 0 0 0 0 0 0 0 0 0 0 0 0 0 0 0 0 0 0 0 0
0 0 0 0 0 0 0 0 0 0 0 0 0 0 0 0 0 0 0 0 0 0 0 0 0 0 0 0 0 0 0 0 0 0 0 0 0 0 0 0 0 0 0
0 0 0 0 0 0 0 0 0 0 0 0 0 0 0 0 0 0 0 0 0 0 0 0 0 0 0 0 0 0 0 0 0 0 0 0 0 0 0 0 0 0 0
0 0 0 0 0 0 0 0 0 0 0 0 0 0 0 0 0 0 0 0 0 0 0 0 0 0 0 0 0 0 0 0 0 0 0 0 0 0 0 0 0 0 0
0 0 0 0 0 0 0 0 0 0 0 0 0 0 0 0 0 0 0 0 0 0 0 0 0 0 0 0 0 0 0 0 0 0 0 0 0 0 0 0 0 0 0
0 0 0 0 0 0 0 0 0 0 0 0 0 0 0 0 0 0 0 0 0 0 0 0 0 0 0 0 0 0 0 0 0 0 0 0 0 0 0 0 0 0 0
0 0 0 0 0 0 0 0 0 0 0 0 0 0 0 0 0 0 0 0 0 0 0 0 0 0 0 0 0 0 0 0 0 0 0 0 0 0 0 0 0 0 0
0 0 0 0 0 0 0 -0 0 0 0 0 0 0 0 0 0 0 0 0 0 0 0 0 0 0 0 0 0 0 0 0 0 0 0 0 0 0 0 0 0 0 0
0 0 0 0 0 0 -0 -0 0 0 0 0 0 0 0 0 0 0 0 0 0 0 0 0 0 0 0 0 0 0 0 0 0 0 0 0 0 0 0 0 0 0 0
0 0 0 0 0 0 0 0 0 0 0 -0 0 0 0 0 0 0 0 0 0 0 0 0 0 0 0 0 0 0 0 0 0 0 0 0 0 0 0 0 0 0 0
0 0 0 0 0 0 0 0 -0 0 0 0 0 0 0 0 0 0 0 0 0 0 0 0 0 0 0 0 0 0 0 0 0 0 0 0 0 0 0 0 0 0 0
0 0 0 0 0 0 0 -0 -0 0 0 0 0 0 0 0 0 0 0 0 0 0 0 0 0 0 0 0 0 0 0 0 0 0 0 0 0 0 0 0 0 0 0
0 0 0 0 0 0 0 0 0 -0 0 0 0 0 0 0 0 0 0 0 0 0 0 0 0 0 0 0 0 0 0 0 0 0 0 0 0 0 0 0 0 0 0
0 0 0 0 0 0 0 0 0 0 0 0 0 0 0 0 0 0 0 0 0 0 0 0 0 0 0 0 0 0 0 0 0 0 0 0 0 0 0 0 0 0 0
0 0 0 0 0 0 0 0 0 0 0 0 0 0 0 0 0 0 0 0 0 0 0 0 0 0 0 0 0 0 0 0 0 0 0 0 0 0 0 0 0 0 0
0 0 0 0 0 0 -0 -0 0 0 0 0 0 -0 0 0 0 0 0 0 0 0 0 0 0 0 0 0 0 0 0 0 0 0 0 0 0 0 0 0 0 0 0
0 0 -0 -0 0 0 -0 0 -0 0 -0 -0 -0 -0 0 0 0 0 0 0 0 0 0 0 0 0 0 0 0 0 0 0 0 0 0 0 0 0 0 0 0 0 0
0 0 -0 -0 0 -0 -0 -0 -0 -0 0 0 0 0 0 0 0 0 0 -0 0 0 0 0 0 0 0 0 0 0 0 0 0 0 0 0 0 0 0 0 0 0 0
-0 -0 -0 -0 -0 0 -0 -0 0 0 -0 -0 -0 -0 -0 -0 -0 0 0 0 0 0 0 0 0 0 0 0 0 0 0 0 0 0 0 0 0 0 0 0 0 0 0
0 0 0 -0 -0 -0 -0 -0 -0 -0 -0 -0 -0 -0 -0 -0 0 0 0 0 0 0 0 0 0 0 0 0 0 0 0 0 0 0 0 0 0 0 0 0 0 0 0
-0 -0 -0 0 0 0 -0 -0 -0 -0 -0 -0 -0 -0 -0 -0 -0 0 0 0 0 0 0 0 0 0 0 0 0 0 0 0 0 0 0 0 0 0 0 0 0 0 0
-0 -0 -0 -0 -0 -0 0 0 0 0 0 -0 -0 -0 -0 0 0 0 0 0 0 0 0 0 0 0 0 0 0 0 0 0 0 0 0 0 0 0 0 0 0 0 0
-0 -0 -0 -0 -0 -0 0 0 0 0 0 0 0 0 0 0 0 0 0 0 0 0 0 0 0 0 0 0 0 0 0 0 0 0 0 0 0 0 0 0 0 0 0
-0 -0 -0 -0 -0 -0 0 0 -0 0 0 0 -0 0 0 0 0 0 0 0 0 0 0 0 0 0 0 0 0 0 0 0 0 0 0 0 0 0 0 0 0 0 0
0 0 0 0 -0 -0 -0 -0 -0 0 0 0 0 0 0 0 0 0 0 0 0 0 0 0 0 0 0 0 0 0 0 0 0 0 0 0 0 0 0 0 0 0 0
-0 -0 -0 0 0 0 -0 -0 0 0 0 0 0 0 0 0 0 0 0 0 0 0 0 0 0 0 0 0 0 0 0 0 0 0 0 0 0 0 0 0 0 0 0
Wind_Speed_500mb
46 46 33 84 76 63 62 57 48 41 38 37 36 33 37 35 33 31 28 28 21 15 14 13 12 3 7 12 15 12 11 12 11 13 16 19 22 27 31 33 38 43 48
47 49 35 53 50 54 61 54 51 44 38 39 40 36 33 30 30 28 30 25 20 17 10 1 5 8 9 5 1 2 8 13 14 15 18 21 23 26 29 31 37 42 45
50 50 51 74 66 69 68 61 54 42 37 38 38 36 29 24 29 27 26 29 21 9 7 4 5 9 12 11 8 10 14 16 14 16 17 18 21 23 24 25 27 30 30
51 58 47 63 74 76 76 68 57 48 36 43 39 28 27 30 31 28 27 24 18 16 14 8 3 2 6 12 14 15 18 25 17 17 18 19 19 19 20 21 25 28 30
46 55 56 19 77 79 83 78 64 57 41 42 36 31 34 33 29 28 24 23 22 18 13 10 9 7 16 20 14 7 17 16 13 14 14 15 16 18 19 19 19 21 25
43 54 57 27 66 75 76 73 63 58 51 47 41 39 35 33 30 29 26 22 18 18 11 10 8 10 24 18 8 5 7 8 9 11 13 15 18 19 22 22 25 26 22
37 52 48 34 59 63 47 68 49 59 52 40 47 44 37 32 31 36 30 23 20 16 14 10 14 17 15 13 9 5 1 3 7 13 17 20 23 26 28 28 30 31 31
35 50 36 55 70 65 53 29 38 61 60 48 55 53 35 40 35 26 17 16 17 8 20 23 19 13 9 5 4 3 4 9 15 21 23 23 24 25 27 26 28 32 33
40 50 50 58 68 53 19 51 63 66 71 60 53 49 28 17 45 29 28 24 20 29 26 19 14 9 10 8 4 2 8 14 17 19 20 21 22 23 27 30 33 33 34
43 39 58 42 72 56 56 61 64 63 70 70 66 49 39 43 37 26 33 36 35 32 27 23 17 14 9 3 4 10 12 13 15 15 16 17 22 28 31 33 34 35 36
31 30 46 63 68 44 46 53 65 67 69 76 74 47 35 36 48 62 47 42 38 31 26 21 16 9 4 6 7 9 11 11 12 15 16 22 26 29 31 33 34 37 39
19 31 33 32 47 44 39 47 57 62 59 65 64 52 49 43 53 65 64 51 44 35 25 19 12 6 2 5 9 12 12 14 14 17 22 25 28 30 31 32 36 39 41
26 29 24 25 27 27 32 35 53 55 49 57 64 61 40 39 48 56 67 56 45 37 21 16 8 2 4 9 12 12 14 15 18 21 24 27 28 30 35 39 41 42 42
23 24 25 25 26 21 22 32 52 53 54 61 62 56 36 28 31 44 47 46 45 18 20 15 10 3 6 8 12 14 15 18 21 22 22 25 31 37 40 43 45 48 48
24 23 25 22 19 12 11 24 27 44 57 48 31 21 23 22 27 40 39 36 34 29 27 25 16 6 4 9 11 14 15 16 17 21 24 31 36 39 44 49 51 51 51
32 28 32 28 31 25 31 48 58 55 46 46 51 48 41 41 36 34 35 32 26 13 25 27 19 8 2 7 9 11 13 16 20 22 29 35 39 43 46 49 52 54 54
37 34 35 62 69 64 53 57 61 54 51 64 54 45 43 38 36 33 32 28 20 21 19 29 18 8 0 4 7 9 13 18 20 22 31 38 44 47 49 52 55 55 57
51 59 60 57 60 62 62 65 72 57 54 53 46 40 40 35 32 28 25 22 18 14 12 16 16 9 3 0 4 9 14 18 18 22 33 39 41 45 50 54 54 55 56
60 63 63 63 63 64 58 56 56 52 50 45 40 36 36 30 30 28 23 18 16 14 13 12 13 9 5 1 5 10 16 20 21 24 32 37 41 44 47 51 51 53 52
54 51 52 53 54 51 47 47 45 45 44 43 38 36 35 28 26 23 20 17 16 14 13 11 9 6 1 5 10 12 15 21 25 25 32 39 40 42 47 51 51 49 51
50 49 50 50 48 44 40 39 39 40 41 41 39 36 32 28 26 22 19 18 15 12 12 9 6 2 4 9 16 22 24 26 29 29 33 37 34 44 49 49 47 47 51
46 46 45 46 47 45 43 42 40 41 40 38 38 35 32 28 26 23 20 17 15 11 7 5 2 5 10 14 18 23 30 33 32 34 41 40 35 41 47 45 44 45 59
43 43 43 43 44 45 44 41 39 38 37 35 33 30 28 26 22 19 16 13 11 7 4 4 7 10 15 19 25 28 30 33 37 40 46 43 37 39 44 42 36 52 56
37 38 41 42 42 45 44 40 37 35 35 34 31 28 24 21 18 14 11 8 6 4 6 11 16 20 25 27 29 31 33 35 36 37 42 39 46 43 42 40 30 55 55
39 39 39 40 40 41 41 39 36 34 31 30 29 25 21 16 11 7 4 3 5 8 12 16 20 24 28 31 31 32 35 37 40 40 37 40 48 52 43 32 40 50 53
39 40 41 42 41 38 39 40 39 36 33 30 26 22 16 12 8 6 6 7 10 12 16 19 23 26 28 30 31 32 36 37 38 37 33 46 45 47 33 23 49 52 45
Wind_Direction_500mb
233 226 240 213 196 195 198 200 200 200 196 185 179 174 171 176 179 180 170 174 185 197 190 173 159 215 298 306 313 320 324 330 332 324 318 312 301 295 292 289 287 287 285
225 220 193 191 200 202 201 202 201 197 191 187 181 175 172 175 177 178 181 181 187 195 169 253 2 2 358 11 199 325 317 334 340 334 327 321 312 311 306 305 299 294 292
215 208 200 198 210 212 213 203 201 196 190 184 177 170 171 186 188 174 173 184 195 205 199 195 66 79 89 99 36 357 353 343 15 21 22 22 19 13 14 14 3 357 345
220 211 207 208 222 213 217 200 195 193 188 179 176 170 182 184 185 185 184 191 195 206 212 204 299 149 97 89 68 43 35 8 37 40 44 47 47 37 34 28 21 10 2
220 217 208 179 208 210 203 202 196 187 180 176 174 172 173 176 170 178 186 192 199 197 203 214 243 247 158 127 109 50 351 351 23 29 31 34 20 13 10 3 1 6 358
218 211 202 190 190 190 202 204 192 177 174 175 165 161 162 166 177 176 179 179 196 200 211 240 257 181 182 189 212 320 327 27 31 11 2 351 346 348 347 357 1 1 357
214 197 190 192 204 199 203 204 190 174 161 176 161 159 162 168 170 186 185 194 199 198 218 230 176 162 179 188 206 232 85 17 337 333 337 337 336 338 336 339 355 0 353
191 180 164 186 185 173 143 135 200 167 171 173 171 163 141 138 145 163 171 199 199 187 169 154 155 160 170 191 165 131 315 330 338 338 335 339 342 346 341 343 342 340 346
175 163 168 172 169 173 155 184 203 185 173 176 184 171 146 141 116 129 143 148 160 163 150 148 153 167 150 140 138 301 325 339 341 343 345 351 356 354 350 353 355 356 356
155 165 163 173 179 189 184 189 201 183 178 177 184 186 189 186 148 122 130 140 151 148 147 149 146 152 143 129 2 339 340 349 350 347 353 350 2 352 350 349 345 340 340
157 142 175 177 188 193 197 195 198 184 185 183 185 182 188 182 194 161 143 141 146 142 141 144 143 135 108 22 355 336 348 354 355 354 355 358 357 350 348 343 338 337 336
137 156 159 183 197 200 193 201 202 192 192 191 189 190 200 188 185 171 158 154 150 139 144 147 146 134 36 349 358 355 354 3 2 359 358 357 352 350 346 347 347 346 347
142 148 146 168 180 189 198 209 213 191 190 190 197 198 194 199 189 184 169 160 154 147 155 160 158 106 333 1 356 358 2 1 0 357 354 354 349 350 353 351 350 351 1
117 143 148 153 174 192 206 223 191 184 189 199 183 173 168 161 175 189 180 170 155 157 157 185 202 255 346 348 356 357 2 359 353 352 352 349 352 355 354 354 355 354 352
96 139 137 157 164 201 174 187 189 145 137 129 125 126 150 186 214 202 194 188 198 171 189 201 217 231 308 357 351 355 360 353 351 355 350 354 357 356 355 356 354 351 347
142 135 148 153 150 154 157 150 133 128 123 124 124 128 137 143 149 160 175 181 195 218 187 199 205 210 299 355 350 351 355 358 358 348 352 357 356 353 353 350 348 346 343
135 133 134 125 123 125 129 130 129 128 134 132 136 138 139 148 158 163 173 190 209 218 211 185 186 183 96 342 352 357 355 350 346 349 354 355 353 350 350 349 348 345 342
128 124 128 127 124 126 125 126 125 128 130 137 137 144 144 149 154 155 170 179 181 180 179 169 168 167 165 182 354 352 343 343 342 348 355 352 349 348 348 348 348 345 343
118 121 123 123 123 128 124 124 129 133 135 135 136 140 140 145 142 142 145 146 144 144 146 153 162 159 163 7 334 330 337 341 342 345 349 346 347 346 348 346 350 345 342
118 119 119 120 123 128 127 128 134 136 134 133 136 133 128 130 125 120 119 120 119 125 130 136 139 141 168 312 316 317 322 335 337 338 345 346 344 345 347 347 346 343 342
125 127 127 127 126 127 128 131 133 132 132 133 130 128 126 122 117 118 116 116 115 118 122 125 135 189 283 309 320 325 331 334 334 333 344 344 346 344 345 347 344 340 345
132 133 134 133 133 134 132 134 135 135 134 133 134 133 130 130 126 122 117 113 104 98 86 84 54 305 308 312 316 318 324 331 340 334 337 345 344 347 342 340 342 338 341
143 143 142 142 143 143 141 144 144 144 141 139 137 133 129 123 122 116 110 98 84 70 40 336 317 317 320 323 323 323 329 333 331 332 334 338 344 347 339 339 340 341 340
154 155 155 155 156 152 150 152 153 153 150 147 142 136 131 126 119 113 101 86 74 46 354 332 328 329 327 322 323 325 325 326 327 329 331 330 337 340 344 340 338 339 338
169 170 168 166 167 164 160 161 163 164 161 158 153 147 141 139 124 111 107 23 348 330 323 324 325 321 320 320 322 322 323 325 328 333 331 326 331 333 344 339 340 337 335
186 184 180 177 176 178 177 176 174 176 179 175 168 166 165 169 185 210 229 266 287 302 314 319 320 317 317 319 322 323 324 327 328 333 326 323 329 334 334 329 338 335 331
Wind_Speed_850mb
46 46 33 84 76 63 62 57 48 41 38 37 36 33 37 35 33 31 28 28 21 15 14 13 12 3 7 12 15 12 11 12 11 13 16 19 22 27 31 33 38 43 48
47 49 35 53 50 54 61 54 51 44 38 39 40 36 33 30 30 28 30 25 20 17 10 1 5 8 9 5 1 2 8 13 14 15 18 21 23 26 29 31 37 42 45
50 50 51 74 66 69 68 61 54 42 37 38 38 36 29 24 29 27 26 29 21 9 7 4 5 9 12 11 8 10 14 16 14 16 17 18 21 23 24 25 27 30 30
51 58 47 63 74 76 76 68 57 48 36 43 39 28 27 30 31 28 27 24 18 16 14 8 3 2 6 12 14 15 18 25 17 17 18 19 19 19 20 21 25 28 30
46 55 56 19 77 79 83 78 64 57 41 42 36 31 34 33 29 28 24 23 22 18 13 10 9 7 16 20 14 7 17 16 13 14 14 15 16 18 19 19 19 21 25
43 54 57 27 66 75 76 73 63 58 51 47 41 39 35 33 30 29 26 22 18 18 11 10 8 10 24 18 8 5 7 8 9 11 13 15 18 19 22 22 25 26 22
37 52 48 34 59 63 47 68 49 59 52 40 47 44 37 32 31 36 30 23 20 16 14 10 14 17 15 13 9 5 1 3 7 13 17 20 23 26 28 28 30 31 31
35 50 36 55 70 65 53 29 38 61 60 48 55 53 35 40 35 26 17 16 17 8 20 23 19 13 9 5 4 3 4 9 15 21 23 23 24 25 27 26 28 32 33
40 50 50 58 68 53 19 51 63 66 71 60 53 49 28 17 45 29 28 24 20 29 26 19 14 9 10 8 4 2 8 14 17 19 20 21 22 23 27 30 33 33 34
43 39 58 42 72 56 56 61 64 63 70 70 66 49 39 43 37 26 33 36 35 32 27 23 17 14 9 3 4 10 12 13 15 15 16 17 22 28 31 33 34 35 36
31 30 46 63 68 44 46 53 65 67 69 76 74 47 35 36 48 62 47 42 38 31 26 21 16 9 4 6 7 9 11 11 12 15 16 22 26 29 31 33 34 37 39
19 31 33 32 47 44 39 47 57 62 59 65 64 52 49 43 53 65 64 51 44 35 25 19 12 6 2 5 9 12 12 14 14 17 22 25 28 30 31 32 36 39 41
26 29 24 25 27 27 32 35 53 55 49 57 64 61 40 39 48 56 67 56 45 37 21 16 8 2 4 9 12 12 14 15 18 21 24 27 28 30 35 39 41 42 42
23 24 25 25 26 21 22 32 52 53 54 61 62 56 36 28 31 44 47 46 45 18 20 15 10 3 6 8 12 14 15 18 21 22 22 25 31 37 40 43 45 48 48
24 23 25 22 19 12 11 24 27 44 57 48 31 21 23 22 27 40 39 36 34 29 27 25 16 6 4 9 11 14 15 16 17 21 24 31 36 39 44 49 51 51 51
32 28 32 28 31 25 31 48 58 55 46 46 51 48 41 41 36 34 35 32 26 13 25 27 19 8 2 7 9 11 13 16 20 22 29 35 39 43 46 49 52 54 54
37 34 35 62 69 64 53 57 61 54 51 64 54 45 43 38 36 33 32 28 20 21 19 29 18 8 0 4 7 9 13 18 20 22 31 38 44 47 49 52 55 55 57
51 59 60 57 60 62 62 65 72 57 54 53 46 40 40 35 32 28 25 22 18 14 12 16 16 9 3 0 4 9 14 18 18 22 33 39 41 45 50 54 54 55 56
60 63 63 63 63 64 58 56 56 52 50 45 40 36 36 30 30 28 23 18 16 14 13 12 13 9 5 1 5 10 16 20 21 24 32 37 41 44 47 51 51 53 52
54 51 52 53 54 51 47 47 45 45 44 43 38 36 35 28 26 23 20 17 16 14 13 11 9 6 1 5 10 12 15 21 25 25 32 39 40 42 47 51 51 49 51
50 49 50 50 48 44 40 39 39 40 41 41 39 36 32 28 26 22 19 18 15 12 12 9 6 2 4 9 16 22 24 26 29 29 33 37 34 44 49 49 47 47 51
46 46 45 46 47 45 43 42 40 41 40 38 38 35 32 28 26 23 20 17 15 11 7 5 2 5 10 14 18 23 30 33 32 34 41 40 35 41 47 45 44 45 59
43 43 43 43 44 45 44 41 39 38 37 35 33 30 28 26 22 19 16 13 11 7 4 4 7 10 15 19 25 28 30 33 37 40 46 43 37 39 44 42 36 52 56
37 38 41 42 42 45 44 40 37 35 35 34 31 28 24 21 18 14 11 8 6 4 6 11 16 20 25 27 29 31 33 35 36 37 42 39 46 43 42 40 30 55 55
39 39 39 40 40 41 41 39 36 34 31 30 29 25 21 16 11 7 4 3 5 8 12 16 20 24 28 31 31 32 35 37 40 40 37 40 48 52 43 32 40 50 53
39 40 41 42 41 38 39 40 39 36 33 30 26 22 16 12 8 6 6 7 10 12 16 19 23 26 28 30 31 32 36 37 38 37 33 46 45 47 33 23 49 52 45
Wind_Direction_850mb
233 226 240 213 196 195 198 200 200 200 196 185 179 174 171 176 179 180 170 174 185 197 190 173 159 215 298 306 313 320 324 330 332 324 318 312 301 295 292 289 287 287 285
225 220 193 191 200 202 201 202 201 197 191 187 181 175 172 175 177 178 181 181 187 195 169 253 2 2 358 11 199 325 317 334 340 334 327 321 312 311 306 305 299 294 292
215 208 200 198 210 212 213 203 201 196 190 184 177 170 171 186 188 174 173 184 195 205 199 195 66 79 89 99 36 357 353 343 15 21 22 22 19 13 14 14 3 357 345
220 211 207 208 222 213 217 200 195 193 188 179 176 170 182 184 185 185 184 191 195 206 212 204 299 149 97 89 68 43 35 8 37 40 44 47 47 37 34 28 21 10 2
220 217 208 179 208 210 203 202 196 187 180 176 174 172 173 176 170 178 186 192 199 197 203 214 243 247 158 127 109 50 351 351 23 29 31 34 20 13 10 3 1 6 358
218 211 202 190 190 190 202 204 192 177 174 175 165 161 162 166 177 176 179 179 196 200 211 240 257 181 182 189 212 320 327 27 31 11 2 351 346 348 347 357 1 1 357
214 197 190 192 204 199 203 204 190 174 161 176 161 159 162 168 170 186 185 194 199 198 218 230 176 162 179 188 206 232 85 17 337 333 337 337 336 338 336 339 355 0 353
191 180 164 186 185 173 143 135 200 167 171 173 171 163 141 138 145 163 171 199 199 187 169 154 155 160 170 191 165 131 315 330 338 338 335 339 342 346 341 343 342 340 346
175 163 168 172 169 173 155 184 203 185 173 176 184 171 146 141 116 129 143 148 160 163 150 148 153 167 150 140 138 301 325 339 341 343 345 351 356 354 350 353 355 356 356
155 165 163 173 179 189 184 189 201 183 178 177 184 186 189 186 148 122 130 140 151 148 147 149 146 152 143 129 2 339 340 349 350 347 353 350 2 352 350 349 345 340 340
157 142 175 177 188 193 197 195 198 184 185 183 185 182 188 182 194 161 143 141 146 142 141 144 143 135 108 22 355 336 348 354 355 354 355 358 357 350 348 343 338 337 336
137 156 159 183 197 200 193 201 202 192 192 191 189 190 200 188 185 171 158 154 150 139 144 147 146 134 36 349 358 355 354 3 2 359 358 357 352 350 346 347 347 346 347
142 148 146 168 180 189 198 209 213 191 190 190 197 198 194 199 189 184 169 160 154 147 155 160 158 106 333 1 356 358 2 1 0 357 354 354 349 350 353 351 350 351 1
117 143 148 153 174 192 206 223 191 184 189 199 183 173 168 161 175 189 180 170 155 157 157 185 202 255 346 348 356 357 2 359 353 352 352 349 352 355 354 354 355 354 352
96 139 137 157 164 201 174 187 189 145 137 129 125 126 150 186 214 202 194 188 198 171 189 201 217 231 308 357 351 355 360 353 351 355 350 354 357 356 355 356 354 351 347
142 135 148 153 150 154 157 150 133 128 123 124 124 128 137 143 149 160 175 181 195 218 187 199 205 210 299 355 350 351 355 358 358 348 352 357 356 353 353 350 348 346 343
135 133 134 125 123 125 129 130 129 128 134 132 136 138 139 148 158 163 173 190 209 218 211 185 186 183 96 342 352 357 355 350 346 349 354 355 353 350 350 349 348 345 342
128 124 128 127 124 126 125 126 125 128 130 137 137 144 144 149 154 155 170 179 181 180 179 169 168 167 165 182 354 352 343 343 342 348 355 352 349 348 348 348 348 345 343
118 121 123 123 123 128 124 124 129 133 135 135 136 140 140 145 142 142 145 146 144 144 146 153 162 159 163 7 334 330 337 341 342 345 349 346 347 346 348 346 350 345 342
118 119 119 120 123 128 127 128 134 136 134 133 136 133 128 130 125 120 119 120 119 125 130 136 139 141 168 312 316 317 322 335 337 338 345 346 344 345 347 347 346 343 342
125 127 127 127 126 127 128 131 133 132 132 133 130 128 126 122 117 118 116 116 115 118 122 125 135 189 283 309 320 325 331 334 334 333 344 344 346 344 345 347 344 340 345
132 133 134 133 133 134 132 134 135 135 134 133 134 133 130 130 126 122 117 113 104 98 86 84 54 305 308 312 316 318 324 331 340 334 337 345 344 347 342 340 342 338 341
143 143 142 142 143 143 141 144 144 144 141 139 137 133 129 123 122 116 110 98 84 70 40 336 317 317 320 323 323 323 329 333 331 332 334 338 344 347 339 339 340 341 340
154 155 155 155 156 152 150 152 153 153 150 147 142 136 131 126 119 113 101 86 74 46 354 332 328 329 327 322 323 325 325 326 327 329 331 330 337 340 344 340 338 339 338
169 170 168 166 167 164 160 161 163 164 161 158 153 147 141 139 124 111 107 23 348 330 323 324 325 321 320 320 322 322 323 325 328 333 331 326 331 333 344 339 340 337 335
186 184 180 177 176 178 177 176 174 176 179 175 168 166 165 169 185 210 229 266 287 302 314 319 320 317 317 319 322 323 324 327 328 333 326 323 329 334 334 329 338 335 331